Kosmos-2516

operational
NORAD ID: 41554 Int'l Des: 2016-032 Owner: VVKOV/IACG Country: RU Constellation: GLONASS
MEOCIRCULAR

关于 Kosmos-2516

正在加载描述...

实时位置

正在加载3D地球...

即将过境

高度历史

Altitude vs Time

uPlot chart will show altitude changes over time

两行轨道根数

1 41554U 16032A 26031.35259785 .00000048 00000-0 00000+0 0 9998
2 41554 63.8446 195.7547 0016452 208.4789 151.4110 2.13106529 75314
Epoch: Jan 31, 2026 • Age: 80 hours

当前状态

高度 19173.5 km
速度 3.95 km/s
星下点 33.51°N, 166.55°W
发射日期 May 29, 2016
运行时间 9.6 years
类型 other

技术详情

分类 Payload
质量 1450.00 kg
干质量 1200.00 kg
总质量 1450.00 kg
长度 4.00 m
直径 1.50 m
跨度 7.80 m
形状 Cyl + Ant + 2 Pan
制造商 RESH
平台类型 Uragan
阶段状态 In Orbit
所有者/国家 VVKOV/IACG/RU

大型星座

Loading constellations...